THOR BURNER 2 R/B

Satellite information

Favourite Embed

Satellite Type and Status

ROCKET BODYIN ORBIT

Key statistics

Satellite THOR BURNER 2 R/B at a glance.

Uptime

20295

Days in orbit

Revolutions

≈ 14.3

Per day

Orbit

SSO

Sun Synchronous Orbit

Inclination

98.9

Latest

Satellite identification and parameters

Extended collection of information and parameters for THOR BURNER 2 R/B.

Object identification

Identified? True

Debris? False

Object name: THOR BURNER 2 R/B

International designator: 1970-012B

Object number (NORAD): 4332

Object ID (CCSDS): 4332

Country: UNITED STATES OF AMERICA (US)

Current information (Y/N): Y

RCS size: LARGE

Orbital parameters

Period: 100.569 minutes

Inclination: 98.8621 deg

SMA: 7163.69 km

Apoapsis: 827.552 km

Periapsis: 743.558 km

RAAN: 146.9253 deg

Eccentricy: 0.00586247

Argument of periapsis: 298.8495 deg

Mean anomaly: 60.6811 deg

Mean motion: 14.31850168 rev/day

Mean motion (dot): 0.00000342 rev/day2

B* drag term: 0.00014258943 1/REarth

Two-line elements (TLE)

Creation date: Sept. 4, 2025, 10:13 a.m.

Reference frame: TEME

Reference center: EARTH

Epoch: Sept. 4, 2025, 4:50 a.m. UTC

TLE line 0: 0 THOR BURNER 2 R/B

TLE line 1: 1 04332U 70012B 25247.20158058 .00000342 00000-0 14259-3 0 9994

TLE line 2: 2 04332 98.8621 146.9253 0058625 298.8495 60.6811 14.31850168893907

Live tracking on map

Real-time ground track for satellite THOR BURNER 2 R/B.

In-orbit conjunctions

A list of the most updated potential collisions computed for object THOR BURNER 2 R/B.

Target Orbit TCA Probability of collision Miss distance Type
FENGYUN 1C DEB SSO 2025-02-03 23:20:25 0.0001525299 197.0 (m) DEBRIS
CZ-6A DEB SSO 2024-12-18 15:13:22 0.0001029809 50.0 (m) DEBRIS
DMSP 5D-2 F13 DEB SSO 2024-12-12 12:25:52 0.0001936149 240.0 (m) DEBRIS
NOAA 16 DEB SSO 2024-09-23 06:28:02 0.0001022075 654.0 (m) DEBRIS
FENGYUN 1C DEB SSO 2024-08-31 01:17:39 0.0002081867 245.0 (m) DEBRIS

Associated space launch

Military meteorological satellite

THOR BURNER 2 R/B was lifted into orbit during the mission ‘Thor Burner 2 | DSAP-5A F1’, on board a Thor Burner 2 space rocket.

The launch took place on Feb. 11, 1970, 8:40 a.m. from Space Launch Complex 10W.

For more information about the launch, click the button.

Launch to space Thor Burner 2 | DSAP-5A F1
Thor Burner 2 | DSAP-5A F1

Agency: N/A

Status: Launch Successful

Launch date: Feb. 11, 1970, 8:40 a.m. UTC

Rocket: Thor Burner 2

Launch pad: Space Launch Complex 10W

Location: Vandenberg SFB, CA, USA

...

Latest news about this satellite

There are no fresh news available about this satellite. Check back as we update our databases every day.


Newsletter sign-up

Weekly statistics, charts and insights to help you stay on top of the space industry.